Tracking 20719 objects as of 26-May-2020
HD Live streaming from Space Station
objects crossing your sky now

HONGYAN 1

Track HONGYAN 1 now!
10-day predictions


NORAD ID: 43914
Int'l Code: 2018-112F
Perigee: 1,097.6 km
Apogee: 1,107.7 km
Inclination: 50.0 °
Period: 107.2 minutes
Semi major axis: 7473 km
RCS: Unknown
Launch date: December 29, 2018
Source: People's Republic of China (PRC)
Launch site: Jiuquan Satellite Launch Center, China (JSC)
aabbcc
Your satellite tracking list
Your tracking list is empty




NASA's NSSDC Master Catalog

Two Line Element Set (TLE):
1 43914U 18112F   20146.92184003 -.00000129 +00000-0 +00000-0 0  9997
2 43914 050.0080 096.6102 0006814 357.5019 002.5824 13.43703676069050
Source of the keplerian elements: AFSPC